Tracking 17154 objects as of 2-August-2015
HD Live streaming from Space Station

SPOT 2

Track SPOT 2 now!
10-day predictions
SPOT 2 is classified as:


NORAD ID: 20436
Int'l Code: 1990-005A
Perigee: 579.2 km
Apogee: 784.8 km
Inclination: 98.7 °
Period: 98.2 minutes
Semi major axis: 7053 km
RCS: 6.4022 m2 (large)
Launch date: January 22, 1990
Source: France (FR)

Nearing retirement; earth imaging for cartography, defence, agriculture, identifying cadastral parcels, urban planning, telecommunications, the environment, disaster management and mitigation and renewable resources.
Your satellite tracking list
Your tracking list is empty





NASA's NSSDC Master Catalog

Two Line Element Set (TLE):
1 20436U 90005A   15214.06862730  .00000264  00000-0  51926-4 0  9993
2 20436 098.7207 072.4119 0145734 224.7914 134.1450 14.65679877332665

Source of the keplerian elements: AFSPC

N2YO: 275